Вернуться в каталог

COSMOS 1024 DEB

LostHEO
NORAD 27890·DEBRIS·🇷🇺 Russia

Запущен Jun 28, 1978 с Plesetsk Cosmodrome

Loading…

Ближайшие Пролёты (ближайшие 24 часа)

TLE

УстаревшееSource: Space-Track

Эпоха: Jul 1, 2011, 15:26 UTC

1 27890U 78066G   11182.64360497  .00000136  00000-0  00000+0 0  9994
2 27890  66.9856 106.5085 5485158  95.9157  28.4750  2.02939386 71225

Отслеживайте COSMOS 1024 DEB в реальном времени с AllMySat

Download on the App Store